Weather History for Montrose, CO

Change the Weather History Date:

Friday, February 8, 2013

  Actual Average Record
Temperature  
Mean Temperature 39 °F 31 °F  
Max Temperature 54 °F 42 °F 55 °F (1999)
Min Temperature 24 °F 19 °F 10 °F (2003)
Degree Days  
Heating Degree Days 26 34  
Month to date heating degree days 245 282  
Since 1 July heating degree days 3958 4087  
Cooling Degree Days 0 0  
Month to date cooling degree days 0 0  
Year to date cooling degree days 0 0  
Moisture  
Dew Point 19 °F    
Average Humidity 48    
Maximum Humidity 74    
Minimum Humidity 22    
Precipitation  
Precipitation 0.00 in 0.02 in 0.14 in (2001)
Month to date precipitation 0.00 0.13  
Year to date precipitation 0.57 0.78  
Sea Level Pressure  
Sea Level Pressure 29.76 in    
Wind  
Wind Speed 13 mph (SSE)    
Max Wind Speed 31 mph    
Max Gust Speed 37 mph    
Visibility 10 miles    
Events      
T = Trace of Precipitation, MM = Missing Value Source: NWS Daily Summary

Daily Weather History Graph

Daily Weather History Graph

Search for Another Location

Airport:

Trip Planner

Search our weather history database for the weather conditions in past years. The results will help you decide how hot, cold, wet, or windy it might be!

Date:

Astronomy

Feb. 08, 2013 Rise Set
Actual Time 7:09 AM MST 5:42 PM MST
Civil Twilight 6:42 AM MST 6:09 PM MST
Nautical Twilight 6:11 AM MST 6:41 PM MST
Astronomical Twilight 5:40 AM MST 7:11 PM MST
Moon 5:40 AM MST (2/8) 4:19 PM MST (2/8)
Length of Visible Light 11h 27m
Length of Day
10h 32m
Waning Crescent, 3% of the Moon is Illuminated
Feb 8
Waning Crescent
Feb 10
New
Feb 17
First Quarter
Feb 25
Full
Mar 4
Last Quarter

Hourly Weather History & Observations

Time (MST) Temp. Windchill Dew Point Humidity Pressure Visibility Wind Dir Wind Speed Gust Speed Precip Events Conditions
12:53 AM 30.9 °F 18.4 °F 16.0 °F 54% 30.04 in 10.0 mi ESE 20.7 mph - N/A   Clear
1:53 AM 25.0 °F 17.1 °F 18.0 °F 75% 30.04 in 10.0 mi South 6.9 mph - N/A   Clear
2:53 AM 25.0 °F 15.5 °F 17.1 °F 72% 29.99 in 10.0 mi SE 9.2 mph - N/A   Clear
3:53 AM 28.0 °F 20.0 °F 18.0 °F 66% 29.95 in 10.0 mi East 8.1 mph - N/A   Scattered Clouds
4:53 AM 30.9 °F 22.8 °F 16.0 °F 54% 29.93 in 10.0 mi East 9.2 mph - N/A   Clear
5:53 AM 33.1 °F 23.4 °F 15.1 °F 48% 29.90 in 10.0 mi SSE 13.8 mph - N/A   Clear
6:53 AM 32.0 °F - 16.0 °F 52% 29.90 in 10.0 mi Calm Calm - N/A   Clear
7:53 AM 34.0 °F 23.0 °F 17.1 °F 50% 29.88 in 10.0 mi SE 18.4 mph 23.0 mph N/A   Clear
8:53 AM 34.0 °F 29.8 °F 19.0 °F 54% 29.89 in 10.0 mi East 4.6 mph - N/A   Clear
9:53 AM 41.0 °F 32.5 °F 19.0 °F 41% 29.84 in 10.0 mi East 17.3 mph - N/A   Clear
10:53 AM 46.0 °F 38.8 °F 21.0 °F 37% 29.78 in 10.0 mi East 18.4 mph - N/A   Clear
11:53 AM 52.0 °F - 18.0 °F 26% 29.72 in 10.0 mi South 11.5 mph - N/A   Clear
12:53 PM 53.1 °F - 16.0 °F 23% 29.67 in 10.0 mi South 25.3 mph 31.1 mph N/A   Clear
1:53 PM 52.0 °F - 15.1 °F 23% 29.65 in 10.0 mi South 17.3 mph 33.4 mph N/A   Clear
2:53 PM 53.1 °F - 17.1 °F 24% 29.62 in 10.0 mi South 28.8 mph 35.7 mph N/A   Clear
3:53 PM 51.1 °F - 19.0 °F 28% 29.61 in 10.0 mi South 15.0 mph 25.3 mph N/A   Scattered Clouds
4:53 PM 46.9 °F - 23.0 °F 39% 29.61 in 10.0 mi South 16.1 mph 25.3 mph N/A   Mostly Cloudy
5:53 PM 45.0 °F 39.3 °F 24.1 °F 44% 29.59 in 10.0 mi SSE 11.5 mph - N/A   Overcast
6:53 PM 41.0 °F 35.2 °F 26.1 °F 55% 29.61 in 10.0 mi SSE 9.2 mph - N/A   Clear
7:53 PM 37.0 °F 32.4 °F 26.1 °F 65% 29.63 in 10.0 mi SSE 5.8 mph - N/A   Clear
8:53 PM 41.0 °F 35.8 °F 18.0 °F 40% 29.62 in 10.0 mi SSW 8.1 mph - N/A   Clear
9:53 PM 39.0 °F 32.3 °F 18.0 °F 43% 29.63 in 10.0 mi WSW 10.4 mph - N/A   Mostly Cloudy
10:53 PM 41.0 °F 33.5 °F 18.0 °F 40% 29.62 in 10.0 mi WSW 13.8 mph 23.0 mph N/A   Scattered Clouds
11:53 PM 39.9 °F 30.0 °F 18.0 °F 41% 29.60 in 10.0 mi WSW 21.9 mph 32.2 mph N/A   Mostly Cloudy